Location: Kaarina
(60.4167°N, 22.4167°E)
Time: 01:10:00
(UTC+03:00)

Cosmos 1975 Rocket - Pass Details

Date: 24 August 2019
Orbit: 605 x 633 km, 82.5° (Epoch: 18 September)

Event Time Altitude Azimuth Distance (km) Brightness Sun altitude
Rises 22:21:31 0° 345° (NNW) 2,912 7.6 -9.2°
Reaches altitude 10° 22:23:45 10° 344° (NNW) 2,006 6.7 -9.4°
Maximum altitude 22:28:12 79° 259° (W) 646 3.2 -9.8°
Drops below altitude 10° 22:32:39 10° 173° (S) 2,008 5.2 -10.2°
Enters shadow 22:33:07 - 173° (S) 2,195 5.4 -10.2°
